| time (UTC) | temp C | wind direction | speed KPH | gust KPH | rain 1hr cm | rain 24hr cm | rain mn cm | humidity % | barometer mb |
| 20260508075335 | 13 | 205 | 0.0 | 1.6 | 0.00 | 0.00 | 0.00 | 21 | 1016.6 |
| 20260508074825 | 13 | 205 | 0.0 | 0.0 | 0.00 | 0.00 | 0.00 | 20 | 1016.6 |
| 20260508074303 | 13 | 205 | 0.0 | 0.0 | 0.00 | 0.00 | 0.00 | 20 | 1016.7 |
| 20260508073824 | 13 | 205 | 0.0 | 1.6 | 0.00 | 0.00 | 0.00 | 20 | 1016.7 |
| 20260508073332 | 13 | 205 | 0.0 | 0.0 | 0.00 | 0.00 | 0.00 | 20 | 1016.8 |
| 20260508072822 | 13 | 205 | 0.0 | 0.0 | 0.00 | 0.00 | 0.00 | 20 | 1016.7 |
| 20260508072334 | 12 | 205 | 0.0 | 0.0 | 0.00 | 0.00 | 0.00 | 21 | 1016.8 |
| 20260508071832 | 12 | 205 | 0.0 | 0.0 | 0.00 | 0.00 | 0.00 | 21 | 1016.8 |
| 20260508071311 | 12 | 205 | 0.0 | 0.0 | 0.00 | 0.00 | 0.00 | 23 | 1016.9 |
| 20260508070820 | 11 | 205 | 0.0 | 0.0 | 0.00 | 0.00 | 0.00 | 24 | 1017.0 |
| 20260508070321 | 11 | 205 | 0.0 | 0.0 | 0.00 | 0.00 | 0.00 | 24 | 1017.0 |
| 20260508065817 | 11 | 205 | 0.0 | 0.0 | 0.00 | 0.00 | 0.00 | 25 | 1017.0 |
| 20260508064825 | 11 | 205 | 0.0 | 0.0 | 0.00 | 0.00 | 0.00 | 25 | 1017.0 |
| 20260508064320 | 11 | 205 | 0.0 | 0.0 | 0.00 | 0.00 | 0.00 | 25 | 1017.0 |
| 20260508063838 | 11 | 205 | 0.0 | 0.0 | 0.00 | 0.00 | 0.00 | 25 | 1017.0 |
| 20260508063337 | 11 | 205 | 0.0 | 0.0 | 0.00 | 0.00 | 0.00 | 25 | 1017.0 |
| 20260508062818 | 11 | 205 | 0.0 | 0.0 | 0.00 | 0.00 | 0.00 | 25 | 1017.1 |
| 20260508062323 | 11 | 205 | 0.0 | 0.0 | 0.00 | 0.00 | 0.00 | 25 | 1017.0 |
| 20260508061815 | 11 | 205 | 0.0 | 0.0 | 0.00 | 0.00 | 0.00 | 26 | 1017.0 |
| 20260508061321 | 11 | 205 | 0.0 | 0.0 | 0.00 | 0.00 | 0.00 | 26 | 1017.0 |
| 20260508060832 | 11 | 205 | 0.0 | 0.0 | 0.00 | 0.00 | 0.00 | 26 | 1016.9 |
| 20260508060326 | 11 | 205 | 0.0 | 0.0 | 0.00 | 0.00 | 0.00 | 26 | 1016.9 |
| 20260508055810 | 11 | 205 | 0.0 | 0.0 | 0.00 | 0.00 | 0.00 | 26 | 1016.9 |
| 20260508055342 | 11 | 205 | 0.0 | 0.0 | 0.00 | 0.00 | 0.00 | 27 | 1017.0 |
| 20260508054832 | 11 | 205 | 0.0 | 0.0 | 0.00 | 0.00 | 0.00 | 27 | 1017.0 |
| 20260508054302 | 11 | 205 | 0.0 | 0.0 | 0.00 | 0.00 | 0.00 | 28 | 1017.0 |
| 20260508053844 | 11 | 205 | 0.0 | 0.0 | 0.00 | 0.00 | 0.00 | 28 | 1017.0 |
| 20260508053303 | 12 | 205 | 0.0 | 0.0 | 0.00 | 0.00 | 0.00 | 27 | 1017.0 |
| 20260508052839 | 12 | 205 | 0.0 | 0.0 | 0.00 | 0.00 | 0.00 | 27 | 1017.0 |
| 20260508052330 | 12 | 205 | 0.0 | 0.0 | 0.00 | 0.00 | 0.00 | 26 | 1017.0 |
| 20260508051802 | 12 | 205 | 0.0 | 0.0 | 0.00 | 0.00 | 0.00 | 26 | 1017.1 |
| 20260508051336 | 12 | 205 | 0.0 | 0.0 | 0.00 | 0.00 | 0.00 | 25 | 1017.0 |
| 20260508050831 | 12 | 205 | 0.0 | 0.0 | 0.00 | 0.00 | 0.00 | 26 | 1017.1 |
| 20260508050333 | 12 | 205 | 0.0 | 0.0 | 0.00 | 0.00 | 0.00 | 27 | 1017.1 |
| 20260508045818 | 12 | 205 | 0.0 | 0.0 | 0.00 | 0.00 | 0.00 | 26 | 1017.0 |
| 20260508045325 | 12 | 205 | 0.0 | 0.0 | 0.00 | 0.00 | 0.00 | 25 | 1017.0 |
| 20260508044830 | 12 | 205 | 0.0 | 0.0 | 0.00 | 0.00 | 0.00 | 26 | 1017.0 |
| 20260508044320 | 12 | 205 | 0.0 | 0.0 | 0.00 | 0.00 | 0.00 | 25 | 1017.0 |
| 20260508043815 | 13 | 205 | 0.0 | 0.0 | 0.00 | 0.00 | 0.00 | 25 | 1017.0 |
| 20260508043301 | 13 | 205 | 0.0 | 0.0 | 0.00 | 0.00 | 0.00 | 26 | 1017.1 |
| 20260508042809 | 13 | 205 | 0.0 | 0.0 | 0.00 | 0.00 | 0.00 | 26 | 1017.1 |
| 20260508042323 | 13 | 205 | 0.0 | 0.0 | 0.00 | 0.00 | 0.00 | 26 | 1017.0 |
| 20260508041823 | 13 | 205 | 0.0 | 0.0 | 0.00 | 0.00 | 0.00 | 25 | 1017.1 |
| 20260508041343 | 13 | 205 | 0.0 | 0.0 | 0.00 | 0.00 | 0.00 | 25 | 1017.1 |
| 20260508040844 | 13 | 205 | 0.0 | 0.0 | 0.00 | 0.00 | 0.00 | 25 | 1017.0 |
| 20260508040314 | 13 | 205 | 0.0 | 0.0 | 0.00 | 0.00 | 0.00 | 25 | 1017.0 |
| 20260508035810 | 13 | 205 | 0.0 | 0.0 | 0.00 | 0.00 | 0.00 | 25 | 1017.0 |
| 20260508035318 | 13 | 205 | 0.0 | 0.0 | 0.00 | 0.00 | 0.00 | 24 | 1017.0 |
| 20260508034829 | 13 | 205 | 0.0 | 0.0 | 0.00 | 0.00 | 0.00 | 23 | 1017.0 |
| 20260508034326 | 14 | 205 | 0.0 | 0.0 | 0.00 | 0.00 | 0.00 | 22 | 1016.8 |
| 20260508033805 | 14 | 205 | 0.0 | 0.0 | 0.00 | 0.00 | 0.00 | 22 | 1016.7 |
| 20260508033338 | 14 | 205 | 0.0 | 0.0 | 0.00 | 0.00 | 0.00 | 22 | 1016.7 |
| 20260508032832 | 15 | 205 | 0.0 | 0.0 | 0.00 | 0.00 | 0.00 | 22 | 1016.5 |
| 20260508032306 | 15 | 205 | 0.0 | 0.0 | 0.00 | 0.00 | 0.00 | 21 | 1016.4 |
| 20260508031809 | 15 | 205 | 0.0 | 0.0 | 0.00 | 0.00 | 0.00 | 21 | 1016.3 |
| 20260508031324 | 15 | 205 | 0.0 | 0.0 | 0.00 | 0.00 | 0.00 | 21 | 1016.2 |
| 20260508030839 | 15 | 205 | 0.0 | 0.0 | 0.00 | 0.00 | 0.00 | 22 | 1016.2 |
| 20260508030325 | 15 | 205 | 0.0 | 0.0 | 0.00 | 0.00 | 0.00 | 21 | 1016.1 |
| 20260508025832 | 15 | 205 | 0.0 | 0.0 | 0.00 | 0.00 | 0.00 | 21 | 1016.2 |
| 20260508025327 | 15 | 205 | 0.0 | 0.0 | 0.00 | 0.00 | 0.00 | 21 | 1016.1 |
| 20260508024840 | 16 | 205 | 0.0 | 0.0 | 0.00 | 0.00 | 0.00 | 21 | 1016.1 |
| 20260508024331 | 16 | 205 | 0.0 | 0.0 | 0.00 | 0.00 | 0.00 | 20 | 1015.9 |
| 20260508023801 | 16 | 205 | 0.0 | 0.0 | 0.00 | 0.00 | 0.00 | 20 | 1015.9 |
| 20260508023321 | 16 | 205 | 0.0 | 0.0 | 0.00 | 0.00 | 0.00 | 20 | 1015.9 |
| 20260508022830 | 17 | 205 | 0.0 | 0.0 | 0.00 | 0.00 | 0.00 | 19 | 1015.8 |
| 20260508022310 | 17 | 205 | 0.0 | 0.0 | 0.00 | 0.00 | 0.00 | 18 | 1015.8 |
| 20260508021802 | 17 | 205 | 0.0 | 0.0 | 0.00 | 0.00 | 0.00 | 16 | 1015.7 |
| 20260508021314 | 18 | 205 | 0.0 | 0.0 | 0.00 | 0.00 | 0.00 | 15 | 1015.6 |
| 20260508020847 | 18 | 205 | 0.0 | 0.0 | 0.00 | 0.00 | 0.00 | 14 | 1015.6 |
| 20260508020310 | 19 | 205 | 0.0 | 0.0 | 0.00 | 0.00 | 0.00 | 14 | 1015.5 |
| 20260508015822 | 19 | 205 | 0.0 | 0.0 | 0.00 | 0.00 | 0.00 | 14 | 1015.1 |
| 20260508015324 | 20 | 205 | 0.0 | 0.0 | 0.00 | 0.00 | 0.00 | 13 | 1015.2 |
| 20260508014835 | 20 | 205 | 0.0 | 0.0 | 0.00 | 0.00 | 0.00 | 13 | 1015.0 |
| 20260508014303 | 20 | 205 | 0.0 | 0.0 | 0.00 | 0.00 | 0.00 | 13 | 1015.4 |
| 20260508013834 | 20 | 205 | 0.0 | 1.6 | 0.00 | 0.00 | 0.00 | 13 | 1015.2 |
| 20260508013318 | 21 | 213 | 0.0 | 0.0 | 0.00 | 0.00 | 0.00 | 12 | 1015.3 |
| 20260508012833 | 21 | 208 | 0.0 | 4.8 | 0.00 | 0.00 | 0.00 | 12 | 1015.2 |
| 20260508012337 | 21 | 205 | 0.0 | 3.2 | 0.00 | 0.00 | 0.00 | 12 | 1015.2 |
| 20260508011803 | 21 | 208 | 0.0 | 0.0 | 0.00 | 0.00 | 0.00 | 12 | 1015.2 |
| 20260508011339 | 21 | 214 | 0.0 | 4.8 | 0.00 | 0.00 | 0.00 | 11 | 1015.2 |
| 20260508010832 | 21 | 215 | 0.0 | 4.8 | 0.00 | 0.00 | 0.00 | 11 | 1015.2 |
| 20260508010316 | 21 | 192 | 0.0 | 0.0 | 0.00 | 0.00 | 0.00 | 11 | 1015.3 |
| 20260508005814 | 22 | 198 | 0.0 | 1.6 | 0.00 | 0.00 | 0.00 | 11 | 1014.9 |
| 20260508005322 | 22 | 193 | 0.0 | 1.6 | 0.00 | 0.00 | 0.00 | 10 | 1014.9 |
| 20260508004844 | 22 | 207 | 0.0 | 1.6 | 0.00 | 0.00 | 0.00 | 10 | 1015.0 |
| 20260508004326 | 22 | 219 | 0.0 | 9.7 | 0.00 | 0.00 | 0.00 | 10 | 1015.0 |
| 20260508003810 | 22 | 218 | 0.0 | 1.6 | 0.00 | 0.00 | 0.00 | 10 | 1015.0 |
| 20260508003321 | 22 | 226 | 1.6 | 3.2 | 0.00 | 0.00 | 0.00 | 10 | 1014.9 |
| 20260508002815 | 22 | 171 | 0.0 | 0.0 | 0.00 | 0.00 | 0.00 | 10 | 1015.0 |
| 20260508002312 | 22 | 164 | 0.0 | 3.2 | 0.00 | 0.00 | 0.00 | 9 | 1014.9 |
| 20260508001818 | 22 | 234 | 0.0 | 0.0 | 0.00 | 0.00 | 0.00 | 9 | 1015.1 |
| 20260508001305 | 22 | 225 | 1.6 | 4.8 | 0.00 | 0.00 | 0.00 | 10 | 1015.1 |
| 20260508000804 | 22 | 251 | 1.6 | 3.2 | 0.00 | 0.00 | 0.00 | 10 | 1015.1 |
| 20260508000334 | 23 | 222 | 0.0 | 0.0 | 0.00 | 0.00 | 0.00 | 9 | 1015.0 |
| 20260507235834 | 23 | 240 | 0.0 | 4.8 | 0.00 | 0.00 | 0.00 | 9 | 1015.1 |
| 20260507235344 | 23 | 215 | 1.6 | 9.7 | 0.00 | 0.00 | 0.00 | 9 | 1015.1 |
| 20260507234827 | 23 | 247 | 3.2 | 8.0 | 0.00 | 0.00 | 0.00 | 9 | 1015.1 |
| 20260507234326 | 23 | 196 | 0.0 | 6.4 | 0.00 | 0.00 | 0.00 | 9 | 1015.2 |
| 20260507233818 | 23 | 210 | 3.2 | 11.3 | 0.00 | 0.00 | 0.00 | 9 | 1015.3 |
| 20260507233341 | 23 | 221 | 1.6 | 6.4 | 0.00 | 0.00 | 0.00 | 8 | 1015.4 |
| 20260507232829 | 23 | 220 | 0.0 | 3.2 | 0.00 | 0.00 | 0.00 | 9 | 1015.5 |
| 20260507232329 | 23 | 217 | 3.2 | 9.7 | 0.00 | 0.00 | 0.00 | 8 | 1015.5 |
| 20260507231829 | 23 | 255 | 4.8 | 8.0 | 0.00 | 0.00 | 0.00 | 9 | 1015.6 |
| 20260507231328 | 23 | 218 | 1.6 | 6.4 | 0.00 | 0.00 | 0.00 | 9 | 1015.6 |
| 20260507230822 | 22 | 27 | 0.0 | 3.2 | 0.00 | 0.00 | 0.00 | 9 | 1015.7 |
| 20260507230330 | 22 | 66 | 0.0 | 1.6 | 0.00 | 0.00 | 0.00 | 8 | 1015.8 |
| 20260507225825 | 23 | 241 | 1.6 | 6.4 | 0.00 | 0.00 | 0.00 | 8 | 1015.6 |
| 20260507225313 | 23 | 232 | 3.2 | 8.0 | 0.00 | 0.00 | 0.00 | 9 | 1015.7 |
| 20260507224813 | 22 | 246 | 0.0 | 0.0 | 0.00 | 0.00 | 0.00 | 9 | 1015.6 |
| 20260507224310 | 22 | 293 | 0.0 | 3.2 | 0.00 | 0.00 | 0.00 | 10 | 1015.7 |
| 20260507223802 | 22 | 301 | 0.0 | 4.8 | 0.00 | 0.00 | 0.00 | 9 | 1015.7 |
| 20260507223314 | 23 | 326 | 3.2 | 6.4 | 0.00 | 0.00 | 0.00 | 10 | 1015.9 |
| 20260507222821 | 22 | 247 | 1.6 | 6.4 | 0.00 | 0.00 | 0.00 | 10 | 1015.9 |
| 20260507222313 | 23 | 290 | 3.2 | 9.7 | 0.00 | 0.00 | 0.00 | 10 | 1016.1 |
| 20260507221844 | 23 | 242 | 0.0 | 3.2 | 0.00 | 0.00 | 0.00 | 9 | 1016.1 |
| 20260507221336 | 22 | 204 | 1.6 | 6.4 | 0.00 | 0.00 | 0.00 | 10 | 1016.1 |
| 20260507220801 | 22 | 355 | 0.0 | 6.4 | 0.00 | 0.00 | 0.00 | 9 | 1016.1 |
| 20260507220344 | 22 | 10 | 0.0 | 0.0 | 0.00 | 0.00 | 0.00 | 8 | 1016.2 |
| 20260507215843 | 22 | 298 | 0.0 | 4.8 | 0.00 | 0.00 | 0.00 | 10 | 1016.3 |
| 20260507215329 | 22 | 274 | 1.6 | 6.4 | 0.00 | 0.00 | 0.00 | 11 | 1016.4 |
| 20260507214802 | 22 | 256 | 1.6 | 3.2 | 0.00 | 0.00 | 0.00 | 10 | 1016.6 |
| 20260507214300 | 22 | 254 | 1.6 | 8.0 | 0.00 | 0.00 | 0.00 | 12 | 1016.6 |
| 20260507213812 | 22 | 315 | 0.0 | 0.0 | 0.00 | 0.00 | 0.00 | 11 | 1016.7 |
| 20260507213340 | 22 | 339 | 0.0 | 4.8 | 0.00 | 0.00 | 0.00 | 11 | 1016.8 |
| 20260507212835 | 22 | 319 | 3.2 | 9.7 | 0.00 | 0.00 | 0.00 | 12 | 1016.9 |
| 20260507212315 | 22 | 243 | 1.6 | 4.8 | 0.00 | 0.00 | 0.00 | 11 | 1017.1 |
| 20260507211819 | 22 | 275 | 3.2 | 12.9 | 0.00 | 0.00 | 0.00 | 12 | 1017.2 |
| 20260507211304 | 21 | 237 | 3.2 | 8.0 | 0.00 | 0.00 | 0.00 | 12 | 1017.2 |
| 20260507210841 | 21 | 240 | 6.4 | 8.0 | 0.00 | 0.00 | 0.00 | 13 | 1017.4 |
| 20260507210339 | 21 | 254 | 0.0 | 0.0 | 0.00 | 0.00 | 0.00 | 13 | 1017.6 |
| 20260507205827 | 22 | 303 | 1.6 | 9.7 | 0.00 | 0.00 | 0.00 | 14 | 1017.6 |
| 20260507205321 | 22 | 257 | 4.8 | 12.9 | 0.00 | 0.00 | 0.00 | 14 | 1017.7 |
| 20260507204814 | 22 | 239 | 4.8 | 12.9 | 0.00 | 0.00 | 0.00 | 14 | 1017.9 |
| 20260507204307 | 21 | 247 | 1.6 | 4.8 | 0.00 | 0.00 | 0.00 | 14 | 1017.9 |
| 20260507203806 | 21 | 27 | 0.0 | 1.6 | 0.00 | 0.00 | 0.00 | 13 | 1018.0 |
| 20260507203308 | 21 | 291 | 0.0 | 1.6 | 0.00 | 0.00 | 0.00 | 15 | 1018.1 |
| 20260507202801 | 21 | 301 | 3.2 | 8.0 | 0.00 | 0.00 | 0.00 | 15 | 1018.2 |
| 20260507202334 | 21 | 282 | 1.6 | 8.0 | 0.00 | 0.00 | 0.00 | 14 | 1018.3 |
| 20260507201822 | 21 | 212 | 1.6 | 6.4 | 0.00 | 0.00 | 0.00 | 16 | 1018.4 |
| 20260507201340 | 20 | 235 | 4.8 | 11.3 | 0.00 | 0.00 | 0.00 | 17 | 1018.5 |
| 20260507200816 | 20 | 253 | 1.6 | 9.7 | 0.00 | 0.00 | 0.00 | 16 | 1018.7 |
| 20260507200302 | 20 | 215 | 0.0 | 0.0 | 0.00 | 0.00 | 0.00 | 17 | 1018.7 |
| 20260507195818 | 19 | 267 | 1.6 | 11.3 | 0.00 | 0.00 | 0.00 | 17 | 1018.4 |
| 20260507195334 | 20 | 323 | 0.0 | 4.8 | 0.00 | 0.00 | 0.00 | 18 | 1018.4 |
| 20260507194818 | 20 | 326 | 1.6 | 6.4 | 0.00 | 0.00 | 0.00 | 19 | 1018.6 |
| 20260507194323 | 20 | 244 | 0.0 | 6.4 | 0.00 | 0.00 | 0.00 | 19 | 1018.5 |
| 20260507193831 | 19 | 343 | 0.0 | 0.0 | 0.00 | 0.00 | 0.00 | 21 | 1018.7 |
| 20260507193310 | 18 | 338 | 0.0 | 0.0 | 0.00 | 0.00 | 0.00 | 22 | 1018.9 |
| 20260507192811 | 18 | 281 | 1.6 | 6.4 | 0.00 | 0.00 | 0.00 | 22 | 1019.0 |
| 20260507192341 | 19 | 247 | 0.0 | 9.7 | 0.00 | 0.00 | 0.00 | 21 | 1019.1 |
| 20260507191842 | 19 | 276 | 1.6 | 8.0 | 0.00 | 0.00 | 0.00 | 22 | 1019.2 |
| 20260507191317 | 18 | 310 | 0.0 | 3.2 | 0.00 | 0.00 | 0.00 | 23 | 1019.2 |
| 20260507190843 | 18 | 207 | 0.0 | 4.8 | 0.00 | 0.00 | 0.00 | 22 | 1019.3 |
| 20260507190325 | 18 | 217 | 0.0 | 3.2 | 0.00 | 0.00 | 0.00 | 22 | 1019.5 |
| 20260507185836 | 18 | 258 | 1.6 | 9.7 | 0.00 | 0.00 | 0.00 | 21 | 1019.5 |
| 20260507185334 | 18 | 211 | 1.6 | 8.0 | 0.00 | 0.00 | 0.00 | 22 | 1019.6 |
| 20260507184827 | 18 | 204 | 0.0 | 1.6 | 0.00 | 0.00 | 0.00 | 22 | 1019.7 |
| 20260507184323 | 18 | 230 | 3.2 | 9.7 | 0.00 | 0.00 | 0.00 | 22 | 1019.8 |
| 20260507183831 | 18 | 234 | 0.0 | 8.0 | 0.00 | 0.00 | 0.00 | 22 | 1019.9 |
| 20260507183325 | 18 | 241 | 1.6 | 8.0 | 0.00 | 0.00 | 0.00 | 24 | 1020.0 |
| 20260507182827 | 17 | 246 | 0.0 | 8.0 | 0.00 | 0.00 | 0.00 | 23 | 1020.0 |
| 20260507182329 | 17 | 290 | 0.0 | 3.2 | 0.00 | 0.00 | 0.00 | 25 | 1020.1 |
| 20260507181815 | 17 | 287 | 0.0 | 1.6 | 0.00 | 0.00 | 0.00 | 23 | 1020.2 |
| 20260507181319 | 17 | 318 | 0.0 | 3.2 | 0.00 | 0.00 | 0.00 | 24 | 1020.4 |
| 20260507180823 | 17 | 269 | 1.6 | 8.0 | 0.00 | 0.00 | 0.00 | 24 | 1020.4 |
| 20260507180304 | 17 | 240 | 1.6 | 6.4 | 0.00 | 0.00 | 0.00 | 25 | 1020.5 |
| 20260507175816 | 17 | 346 | 0.0 | 4.8 | 0.00 | 0.00 | 0.00 | 26 | 1020.5 |
| 20260507175321 | 17 | 261 | 1.6 | 8.0 | 0.00 | 0.00 | 0.00 | 25 | 1020.6 |
| 20260507174804 | 17 | 243 | 1.6 | 8.0 | 0.00 | 0.00 | 0.00 | 28 | 1020.6 |
| 20260507174339 | 16 | 332 | 1.6 | 6.4 | 0.00 | 0.00 | 0.00 | 26 | 1020.6 |
| 20260507173814 | 16 | 353 | 0.0 | 3.2 | 0.00 | 0.00 | 0.00 | 28 | 1020.6 |
| 20260507173305 | 16 | 354 | 0.0 | 3.2 | 0.00 | 0.00 | 0.00 | 29 | 1020.8 |
| 20260507172801 | 16 | 291 | 0.0 | 0.0 | 0.00 | 0.00 | 0.00 | 28 | 1020.8 |
| 20260507172307 | 15 | 20 | 0.0 | 0.0 | 0.00 | 0.00 | 0.00 | 29 | 1020.9 |
| 20260507171833 | 15 | 331 | 1.6 | 6.4 | 0.00 | 0.00 | 0.00 | 31 | 1021.0 |
| 20260507171305 | 15 | 300 | 0.0 | 4.8 | 0.00 | 0.00 | 0.00 | 30 | 1021.1 |
| 20260507170827 | 16 | 319 | 0.0 | 3.2 | 0.00 | 0.00 | 0.00 | 29 | 1021.2 |
| 20260507170327 | 15 | 261 | 0.0 | 0.0 | 0.00 | 0.00 | 0.00 | 30 | 1021.2 |
| 20260507165843 | 15 | 164 | 0.0 | 0.0 | 0.00 | 0.00 | 0.00 | 30 | 1021.2 |
| 20260507165321 | 15 | 248 | 0.0 | 0.0 | 0.00 | 0.00 | 0.00 | 28 | 1021.3 |
| 20260507164840 | 14 | 255 | 3.2 | 8.0 | 0.00 | 0.00 | 0.00 | 30 | 1021.3 |
| 20260507164337 | 14 | 254 | 1.6 | 4.8 | 0.00 | 0.00 | 0.00 | 29 | 1021.3 |
| 20260507163834 | 14 | 324 | 0.0 | 0.0 | 0.00 | 0.00 | 0.00 | 29 | 1021.3 |
| 20260507163314 | 14 | 312 | 0.0 | 0.0 | 0.00 | 0.00 | 0.00 | 31 | 1021.5 |
| 20260507162845 | 15 | 258 | 4.8 | 12.9 | 0.00 | 0.00 | 0.00 | 30 | 1021.5 |
| 20260507162328 | 13 | 269 | 0.0 | 4.8 | 0.00 | 0.00 | 0.00 | 35 | 1021.5 |
| 20260507161824 | 13 | 278 | 0.0 | 0.0 | 0.00 | 0.00 | 0.00 | 35 | 1021.5 |
| 20260507161309 | 13 | 250 | 0.0 | 4.8 | 0.00 | 0.00 | 0.00 | 37 | 1021.7 |
| 20260507160824 | 13 | 306 | 0.0 | 3.2 | 0.00 | 0.00 | 0.00 | 38 | 1021.8 |
| 20260507160317 | 13 | 304 | 0.0 | 0.0 | 0.00 | 0.00 | 0.00 | 37 | 1021.7 |
| 20260507155831 | 12 | 254 | 0.0 | 6.4 | 0.00 | 0.00 | 0.00 | 39 | 1021.7 |
| 20260507155344 | 12 | 274 | 0.0 | 4.8 | 0.00 | 0.00 | 0.00 | 40 | 1021.7 |
| 20260507154812 | 12 | 289 | 0.0 | 0.0 | 0.00 | 0.00 | 0.00 | 41 | 1021.8 |
| 20260507154346 | 12 | 258 | 1.6 | 6.4 | 0.00 | 0.00 | 0.00 | 41 | 1021.9 |
| 20260507153807 | 11 | 273 | 0.0 | 3.2 | 0.00 | 0.00 | 0.00 | 42 | 1021.9 |
| 20260507153306 | 11 | 260 | 0.0 | 1.6 | 0.00 | 0.00 | 0.00 | 43 | 1022.0 |
| 20260507152829 | 11 | 257 | 0.0 | 4.8 | 0.00 | 0.00 | 0.00 | 43 | 1022.0 |
| 20260507152321 | 11 | 257 | 1.6 | 6.4 | 0.00 | 0.00 | 0.00 | 45 | 1022.1 |
| 20260507151825 | 10 | 263 | 0.0 | 0.0 | 0.00 | 0.00 | 0.00 | 45 | 1022.0 |
| 20260507151302 | 10 | 263 | 0.0 | 1.6 | 0.00 | 0.00 | 0.00 | 45 | 1022.2 |
| 20260507150823 | 10 | 261 | 0.0 | 0.0 | 0.00 | 0.00 | 0.00 | 46 | 1021.8 |
| 20260507150323 | 10 | 260 | 0.0 | 0.0 | 0.00 | 0.00 | 0.00 | 44 | 1021.8 |
| 20260507145802 | 9 | 260 | 0.0 | 3.2 | 0.00 | 0.00 | 0.00 | 48 | 1022.2 |
| 20260507145325 | 9 | 260 | 0.0 | 0.0 | 0.00 | 0.00 | 0.00 | 49 | 1022.4 |
| 20260507144829 | 9 | 260 | 0.0 | 0.0 | 0.00 | 0.00 | 0.00 | 48 | 1022.5 |
| 20260507144316 | 8 | 259 | 1.6 | 4.8 | 0.00 | 0.00 | 0.00 | 50 | 1022.1 |
| 20260507143805 | 8 | 259 | 0.0 | 0.0 | 0.00 | 0.00 | 0.00 | 51 | 1022.0 |
| 20260507143307 | 8 | 259 | 0.0 | 0.0 | 0.00 | 0.00 | 0.00 | 52 | 1022.0 |
| 20260507142830 | 7 | 259 | 0.0 | 0.0 | 0.00 | 0.00 | 0.00 | 54 | 1022.1 |
| 20260507142329 | 7 | 259 | 0.0 | 0.0 | 0.00 | 0.00 | 0.00 | 55 | 1022.2 |
| 20260507141834 | 7 | 259 | 0.0 | 0.0 | 0.00 | 0.00 | 0.00 | 56 | 1022.1 |
| 20260507141312 | 7 | 258 | 0.0 | 0.0 | 0.00 | 0.00 | 0.00 | 56 | 1022.1 |
| 20260507140841 | 7 | 257 | 0.0 | 0.0 | 0.00 | 0.00 | 0.00 | 58 | 1022.0 |
| 20260507140339 | 7 | 257 | 0.0 | 0.0 | 0.00 | 0.00 | 0.00 | 58 | 1022.0 |
| 20260507135845 | 6 | 263 | 1.6 | 3.2 | 0.00 | 0.00 | 0.00 | 59 | 1022.0 |
| 20260507135325 | 6 | 270 | 0.0 | 0.0 | 0.00 | 0.00 | 0.00 | 59 | 1022.0 |
| 20260507134814 | 6 | 318 | 0.0 | 0.0 | 0.00 | 0.00 | 0.00 | 60 | 1022.0 |
| 20260507134344 | 5 | 318 | 0.0 | 0.0 | 0.00 | 0.00 | 0.00 | 60 | 1022.0 |
| 20260507133817 | 5 | 318 | 0.0 | 0.0 | 0.00 | 0.00 | 0.00 | 63 | 1021.9 |
| 20260507133319 | 5 | 318 | 0.0 | 0.0 | 0.00 | 0.00 | 0.00 | 63 | 1021.9 |
| 20260507132839 | 5 | 318 | 0.0 | 0.0 | 0.00 | 0.00 | 0.00 | 65 | 1022.0 |
| 20260507132317 | 4 | 318 | 0.0 | 0.0 | 0.00 | 0.00 | 0.00 | 65 | 1021.8 |
| 20260507131843 | 3 | 318 | 0.0 | 0.0 | 0.00 | 0.00 | 0.00 | 65 | 1021.7 |
| 20260507131337 | 3 | 318 | 0.0 | 0.0 | 0.00 | 0.00 | 0.00 | 66 | 1021.7 |
| 20260507130806 | 2 | 318 | 0.0 | 0.0 | 0.00 | 0.00 | 0.00 | 68 | 1021.7 |
| 20260507130327 | 2 | 318 | 0.0 | 0.0 | 0.00 | 0.00 | 0.00 | 68 | 1021.6 |
| 20260507125812 | 2 | 318 | 0.0 | 0.0 | 0.00 | 0.00 | 0.00 | 68 | 1021.6 |
| 20260507125313 | 2 | 318 | 0.0 | 0.0 | 0.00 | 0.00 | 0.00 | 69 | 1021.5 |
| 20260507124840 | 2 | 318 | 0.0 | 0.0 | 0.00 | 0.00 | 0.00 | 69 | 1021.5 |
| 20260507124306 | 2 | 318 | 0.0 | 0.0 | 0.00 | 0.00 | 0.00 | 69 | 1021.4 |
| 20260507123845 | 2 | 318 | 0.0 | 0.0 | 0.00 | 0.00 | 0.00 | 68 | 1021.5 |
| 20260507123346 | 2 | 318 | 0.0 | 0.0 | 0.00 | 0.00 | 0.00 | 68 | 1021.3 |
| 20260507122805 | 2 | 318 | 0.0 | 0.0 | 0.00 | 0.00 | 0.00 | 70 | 1021.3 |
| 20260507122313 | 2 | 318 | 0.0 | 0.0 | 0.00 | 0.00 | 0.00 | 71 | 1021.2 |
| 20260507121838 | 1 | 318 | 0.0 | 0.0 | 0.00 | 0.00 | 0.00 | 73 | 1021.1 |
| 20260507121319 | 1 | 318 | 0.0 | 0.0 | 0.00 | 0.00 | 0.00 | 71 | 1021.1 |
| 20260507120843 | 1 | 318 | 0.0 | 0.0 | 0.00 | 0.00 | 0.00 | 70 | 1021.1 |
| 20260507120310 | 1 | 318 | 0.0 | 0.0 | 0.00 | 0.00 | 0.00 | 69 | 1021.1 |
| 20260507115805 | 2 | 318 | 0.0 | 0.0 | 0.00 | 0.00 | 0.00 | 69 | 1021.5 |
| 20260507115327 | 2 | 318 | 0.0 | 0.0 | 0.00 | 0.00 | 0.00 | 69 | 1021.5 |
| 20260507114837 | 2 | 318 | 0.0 | 0.0 | 0.00 | 0.00 | 0.00 | 68 | 1021.4 |
| 20260507114311 | 2 | 318 | 0.0 | 0.0 | 0.00 | 0.00 | 0.00 | 67 | 1021.4 |
| 20260507113844 | 2 | 318 | 0.0 | 0.0 | 0.00 | 0.00 | 0.00 | 67 | 1021.4 |
| 20260507113330 | 2 | 318 | 0.0 | 0.0 | 0.00 | 0.00 | 0.00 | 66 | 1021.4 |
| 20260507112809 | 2 | 318 | 0.0 | 0.0 | 0.00 | 0.00 | 0.00 | 66 | 1021.4 |
| 20260507112345 | 2 | 318 | 0.0 | 0.0 | 0.00 | 0.00 | 0.00 | 65 | 1021.5 |
| 20260507111846 | 2 | 318 | 0.0 | 0.0 | 0.00 | 0.00 | 0.00 | 63 | 1021.5 |
| 20260507111325 | 2 | 318 | 0.0 | 0.0 | 0.00 | 0.00 | 0.00 | 62 | 1021.5 |
| 20260507110802 | 2 | 318 | 0.0 | 0.0 | 0.00 | 0.00 | 0.00 | 62 | 1021.5 |
| 20260507110325 | 2 | 318 | 0.0 | 0.0 | 0.00 | 0.00 | 0.00 | 61 | 1021.5 |
| 20260507105315 | 2 | 318 | 0.0 | 0.0 | 0.00 | 0.00 | 0.00 | 60 | 1021.5 |
| 20260507104806 | 3 | 318 | 0.0 | 0.0 | 0.00 | 0.00 | 0.00 | 58 | 1021.5 |
| 20260507104312 | 3 | 318 | 0.0 | 0.0 | 0.00 | 0.00 | 0.00 | 57 | 1021.5 |
| 20260507103810 | 3 | 318 | 0.0 | 0.0 | 0.00 | 0.00 | 0.00 | 57 | 1021.4 |
| 20260507103323 | 3 | 318 | 0.0 | 0.0 | 0.00 | 0.00 | 0.00 | 55 | 1021.5 |
| 20260507102820 | 3 | 318 | 0.0 | 0.0 | 0.00 | 0.00 | 0.00 | 55 | 1021.5 |
| 20260507102341 | 3 | 318 | 0.0 | 0.0 | 0.00 | 0.00 | 0.00 | 54 | 1021.4 |
| 20260507101823 | 3 | 318 | 0.0 | 0.0 | 0.00 | 0.00 | 0.00 | 51 | 1021.3 |
| 20260507101410 | 3 | 318 | 0.0 | 0.0 | 0.00 | 0.00 | 0.00 | 50 | 1021.4 |
| 20260507100828 | 3 | 318 | 0.0 | 0.0 | 0.00 | 0.00 | 0.00 | 50 | 1021.3 |
| 20260507100312 | 4 | 318 | 0.0 | 0.0 | 0.00 | 0.00 | 0.00 | 49 | 1021.3 |
| 20260507095829 | 4 | 318 | 0.0 | 0.0 | 0.00 | 0.00 | 0.00 | 49 | 1021.2 |
| 20260507095337 | 4 | 318 | 0.0 | 0.0 | 0.00 | 0.00 | 0.00 | 48 | 1021.1 |
| 20260507094834 | 4 | 318 | 0.0 | 0.0 | 0.00 | 0.00 | 0.00 | 48 | 1021.3 |
| 20260507094342 | 4 | 318 | 0.0 | 0.0 | 0.00 | 0.00 | 0.00 | 47 | 1021.1 |
| 20260507093834 | 4 | 318 | 0.0 | 0.0 | 0.00 | 0.00 | 0.00 | 48 | 1021.1 |
| 20260507093305 | 4 | 318 | 0.0 | 0.0 | 0.00 | 0.00 | 0.00 | 47 | 1021.0 |
| 20260507092826 | 4 | 318 | 0.0 | 0.0 | 0.00 | 0.00 | 0.00 | 46 | 1021.1 |
| 20260507092346 | 4 | 318 | 0.0 | 0.0 | 0.00 | 0.00 | 0.00 | 46 | 1021.1 |
| 20260507091811 | 5 | 318 | 0.0 | 0.0 | 0.00 | 0.00 | 0.00 | 45 | 1021.0 |
| 20260507091332 | 5 | 318 | 0.0 | 0.0 | 0.00 | 0.00 | 0.00 | 43 | 1021.0 |
| 20260507090845 | 5 | 318 | 0.0 | 0.0 | 0.00 | 0.00 | 0.00 | 43 | 1020.9 |
| 20260507090339 | 5 | 318 | 0.0 | 0.0 | 0.00 | 0.00 | 0.00 | 43 | 1020.9 |
| 20260507085828 | 5 | 318 | 0.0 | 0.0 | 0.00 | 0.00 | 0.00 | 42 | 1021.2 |
| 20260507085306 | 5 | 318 | 0.0 | 0.0 | 0.00 | 0.00 | 0.00 | 41 | 1021.3 |
| 20260507084829 | 5 | 318 | 0.0 | 0.0 | 0.00 | 0.00 | 0.00 | 41 | 1021.1 |
| 20260507084322 | 5 | 318 | 0.0 | 0.0 | 0.00 | 0.00 | 0.00 | 42 | 1021.1 |
| 20260507083842 | 6 | 318 | 0.0 | 0.0 | 0.00 | 0.00 | 0.00 | 41 | 1021.1 |
| 20260507083313 | 6 | 318 | 0.0 | 0.0 | 0.00 | 0.00 | 0.00 | 38 | 1021.1 |
| 20260507082808 | 7 | 318 | 0.0 | 0.0 | 0.00 | 0.00 | 0.00 | 36 | 1021.0 |
| 20260507082322 | 7 | 318 | 0.0 | 3.2 | 0.00 | 0.00 | 0.00 | 36 | 1021.0 |
| 20260507081801 | 6 | 318 | 0.0 | 0.0 | 0.00 | 0.00 | 0.00 | 37 | 1021.1 |
| 20260507081329 | 6 | 318 | 0.0 | 0.0 | 0.00 | 0.00 | 0.00 | 38 | 1021.1 |
| 20260507080837 | 6 | 318 | 0.0 | 0.0 | 0.00 | 0.00 | 0.00 | 38 | 1020.9 |
| 20260507080331 | 6 | 318 | 0.0 | 0.0 | 0.00 | 0.00 | 0.00 | 38 | 1020.9 |
| 20260507075839 | 7 | 318 | 0.0 | 0.0 | 0.00 | 0.00 | 0.00 | 37 | 1020.9 |